[[{"header":{"parameterUnit":"m.s-1","parameterCategory":1,"la1":30.2991,"la2":30.254,"lo1":-89.0895,"lo2":-89.0444,"dy":0.0017,"dx":0.0017,"nx":28,"ny":28,"refTime":"2023-08-11T09:00:00:Z","depth":0,"parameterNumber":2,"parameterNumberName":"U-component_of_WINDS"},"data":[0,0,0,0,0,0,0,0,0,0,0,0,0,0,0,0,0,0,0,0,0,0,0,0,0,0,0,0,0,0,0,0,0,0,0,0,0,0,0,0,0,0,0,0,0,0,0,0,0,0,0,0,0,0,0,0,0,0,1.4111,1.4112,0,1.421,1.4211,1.4213,1.4276,1.4276,1.4276,1.4277,1.4381,1.4384,1.4386,0,0,0,0,0,0,0,0,0,0,0,0,0,1.3981,1.3983,1.4111,1.4112,1.4113,1.421,1.4211,1.4213,1.4276,1.4276,1.4277,1.4277,1.4381,1.4383,1.4386,0,0,0,0,0,0,0,0,0,0,0,0,0,1.4054,1.3983,1.411,1.4156,1.4161,1.421,1.4212,1.4213,1.4276,1.4276,1.4277,1.4277,1.438,1.4383,1.4387,1.4399,0,0,1.4398,1.44,0,0,0,0,0,0,0,0,1.405,1.4059,1.4148,1.4153,1.4159,1.4231,1.4204,1.4275,1.4275,1.4232,1.4277,1.4277,1.4331,1.4339,1.4356,1.4403,1.4408,1.4398,1.4401,1.4402,1.4403,0,0,0,0,0,0,0,1.4045,1.4055,1.415,1.4149,1.4156,1.4174,1.4185,1.4218,1.4277,1.4236,1.4241,1.4252,1.4334,1.4353,1.4359,1.441,1.4398,1.4401,1.4404,1.4405,1.4477,1.4476,0,0,0,0,0,0,1.4032,1.405,1.4147,1.4153,1.4105,1.4175,1.4188,1.4207,1.4277,1.4288,1.4251,1.4254,1.4346,1.4355,1.4363,1.4384,1.4402,1.4406,1.4408,1.4477,1.4477,1.4476,0,0,0,0,0,0,1.4029,1.404,1.4143,1.4103,1.4118,1.4177,1.4199,1.4209,1.4228,1.4289,1.43,1.4259,1.4347,1.4358,1.439,1.4389,1.4407,1.4411,1.4477,1.4477,1.4476,1.4424,0,0,0,0,0,0,1.4025,1.4038,1.4042,1.4103,1.412,1.4166,1.4198,1.4211,1.4233,1.4238,1.4299,1.4309,1.4348,1.4384,1.4394,1.4394,1.4413,1.4478,1.4477,1.4477,1.4427,1.4422,1.4419,0,0,0,0,0,1.402,1.4023,1.4041,1.4053,1.4125,1.4166,1.4176,1.4219,1.4233,1.4238,1.4278,1.4307,1.4388,1.4387,1.4398,1.4399,1.4478,1.4477,1.4477,1.4428,1.4423,1.4419,0,0,0,0,0,0,1.3959,1.4031,1.4053,1.4075,1.4114,1.4176,1.4183,1.4212,1.4248,1.4251,1.4306,1.4319,1.4346,1.4377,1.4375,1.4417,1.4437,1.4438,1.4396,1.4392,1.4388,1.438,1.4416,0,0,0,0,0,1.3949,1.3975,1.4037,1.4051,1.4069,1.4123,1.4143,1.4174,1.4216,1.4233,1.4275,1.4317,1.4352,1.4374,1.4409,1.4432,1.4448,1.4439,1.4435,1.4431,1.4432,1.445,1.4448,1.4474,1.4474,1.4474,0,0,1.3926,1.3969,1.3982,1.404,1.4073,1.4101,1.4136,1.4163,1.4185,1.4238,1.4271,1.4304,1.4354,1.4383,1.4397,1.4408,1.4429,1.4431,1.4427,1.443,1.4449,1.4447,1.4444,1.4474,1.4474,1.4474,0,0,1.39,1.3934,1.3951,1.3985,1.4036,1.4073,1.4077,1.4136,1.416,1.4194,1.4235,1.4264,1.4322,1.4357,1.4383,1.4376,1.4405,1.4386,1.4365,1.4382,1.438,1.4378,1.4378,1.4377,1.4387,1.4386,1.4386,0,1.3866,1.3908,1.3956,1.3982,1.4007,1.4057,1.4076,1.4107,1.4167,1.4185,1.4197,1.4274,1.4311,1.435,1.4349,1.4367,1.4376,1.4378,1.4376,1.4375,1.4374,1.4375,1.4374,1.4384,1.4384,1.4384,1.4385,0,1.3865,1.3894,1.3902,1.3959,1.3986,1.4008,1.4062,1.4084,1.4114,1.415,1.4187,1.4234,1.4282,1.4294,1.4323,1.4339,1.4344,1.4365,1.4386,1.4369,1.437,1.437,1.438,1.4381,1.4382,1.4383,0,0,1.3799,1.3886,1.3888,1.3917,1.3979,1.4004,1.4031,1.4077,1.4096,1.4137,1.4162,1.4213,1.4235,1.4264,1.4298,1.4313,1.4308,1.4333,1.4335,1.4328,1.4332,1.4315,1.4314,1.4329,1.4329,1.4329,1.4328,0,1.3783,1.3831,1.3877,1.391,1.3939,1.399,1.4014,1.4056,1.4092,1.4124,1.4165,1.4201,1.4225,1.4244,1.4261,1.4304,1.4309,1.4306,1.4354,1.4356,1.434,1.4314,1.4296,1.4292,1.4328,1.4329,1.4329,0,1.3769,1.3809,1.3844,1.3908,1.3922,1.3942,1.3991,1.402,1.4071,1.4097,1.4132,1.4169,1.4203,1.4221,1.427,1.4266,1.429,1.4315,1.4316,1.4322,1.434,1.432,1.4292,1.4292,1.433,1.4329,1.4329,0,1.3719,1.3782,1.3813,1.3835,1.391,1.3923,1.3955,1.4007,1.4033,1.4077,1.4095,1.4142,1.4168,1.4205,1.4256,1.4264,1.43,1.4322,1.4324,1.4323,1.4328,1.4327,1.4304,1.4343,1.4343,1.4343,1.4343,0,1.3695,1.3715,1.3792,1.381,1.3836,1.3891,1.3915,1.3952,1.3998,1.4027,1.4075,1.4101,1.4166,1.4201,1.4241,1.4277,1.4288,1.4312,1.4322,1.4307,1.4305,1.4323,1.4325,1.4343,1.4343,1.4343,1.4343,0,1.3643,1.3694,1.3731,1.38,1.3818,1.3834,1.3894,1.3916,1.3957,1.3993,1.4004,1.4069,1.4113,1.4168,1.4229,1.4257,1.4289,1.4305,1.4271,1.4277,1.4277,1.4277,1.4265,1.4267,1.4304,1.4304,1.4303,0,1.3623,1.364,1.3712,1.3735,1.3766,1.3801,1.3829,1.3886,1.3914,1.3976,1.3991,1.4039,1.408,1.415,1.4203,1.4252,1.4269,1.4262,1.4277,1.4263,1.4271,1.4269,1.4272,1.4258,1.4257,1.4256,1.4256,0,1.3585,1.3611,1.3649,1.3697,1.3729,1.377,1.3813,1.3829,1.3896,1.3925,1.3971,1.4004,1.4069,1.4117,1.4173,1.4209,1.4245,1.4251,1.4255,1.4239,1.422,1.4232,1.4261,1.4251,1.4251,1.4252,1.4252,1.4252,1.3549,1.3568,1.3622,1.3665,1.3704,1.3744,1.3768,1.3814,1.3853,1.3909,1.3942,1.3987,1.4044,1.4123,1.4158,1.4197,1.4209,1.4214,1.4215,1.4215,1.4211,1.4214,1.4208,1.4208,1.4208,1.4208,1.4208,0,1.3514,1.3553,1.3591,1.365,1.3685,1.3716,1.3767,1.3793,1.3833,1.3882,1.3922,1.3978,1.4026,1.4085,1.4139,1.4159,1.4177,1.4171,1.417,1.4178,1.4196,1.4189,1.4156,1.4156,1.4156,1.4156,1.4156,1.4156,1.3499,1.3534,1.3567,1.3623,1.3662,1.3707,1.3734,1.3773,1.3812,1.3872,1.3912,1.3951,1.4005,1.4064,1.4111,1.4127,1.4145,1.4135,1.4156,1.4172,1.4176,1.418,1.4174,1.4138,1.4138,1.4135,1.4135,1.4135]},{"header":{"parameterUnit":"m.s-1","parameterCategory":1,"la1":30.2991,"la2":30.254,"lo1":-89.0895,"lo2":-89.0444,"dy":0.0017,"dx":0.0017,"nx":28,"ny":28,"refTime":"2023-08-11T09:00:00:Z","depth":0,"parameterNumber":3,"parameterNumberName":"V-component_of_WINDS"},"data":[0,0,0,0,0,0,0,0,0,0,0,0,0,0,0,0,0,0,0,0,0,0,0,0,0,0,0,0,0,0,0,0,0,0,0,0,0,0,0,0,0,0,0,0,0,0,0,0,0,0,0,0,0,0,0,0,0,0,4.0703,4.0705,0,4.0827,4.0829,4.083,4.0867,4.0866,4.0865,4.0865,4.0984,4.0987,4.0991,0,0,0,0,0,0,0,0,0,0,0,0,0,4.0489,4.0493,4.0703,4.0705,4.0706,4.0827,4.0829,4.083,4.0867,4.0866,4.0865,4.0865,4.0982,4.0987,4.0991,0,0,0,0,0,0,0,0,0,0,0,0,0,4.0594,4.0494,4.0703,4.0739,4.0744,4.0827,4.0829,4.0831,4.0867,4.0866,4.0865,4.0864,4.0981,4.0986,4.0992,4.1045,0,0,4.1009,4.1011,0,0,0,0,0,0,0,0,4.0588,4.0602,4.0732,4.0737,4.0742,4.0831,4.0797,4.0902,4.0867,4.082,4.0865,4.0864,4.0933,4.0942,4.0967,4.1051,4.1056,4.1009,4.1013,4.1015,4.1017,0,0,0,0,0,0,0,4.0581,4.0597,4.0752,4.0734,4.074,4.0746,4.076,4.0817,4.088,4.0824,4.0827,4.0842,4.0935,4.0962,4.097,4.1057,4.1009,4.1014,4.1018,4.102,4.1188,4.1189,0,0,0,0,0,0,4.0569,4.059,4.0748,4.0756,4.0662,4.0751,4.0767,4.0803,4.0879,4.089,4.0842,4.0843,4.0953,4.0964,4.0975,4.1041,4.1015,4.102,4.1024,4.1187,4.1189,4.119,0,0,0,0,0,0,4.0564,4.0582,4.0743,4.0674,4.0695,4.0756,4.0796,4.0806,4.0833,4.0893,4.0904,4.0859,4.0953,4.0967,4.1028,4.1046,4.1023,4.1028,4.1186,4.1188,4.1189,4.1175,0,0,0,0,0,0,4.0558,4.058,4.0603,4.0674,4.0699,4.0796,4.0798,4.0809,4.0843,4.0845,4.0911,4.0921,4.0953,4.1019,4.1033,4.1053,4.1032,4.1185,4.1187,4.1189,4.1174,4.1176,4.1178,0,0,0,0,0,4.055,4.0593,4.0604,4.0623,4.0729,4.0798,4.0811,4.0849,4.0845,4.0867,4.0906,4.0919,4.1042,4.1025,4.1041,4.1063,4.1184,4.1186,4.1189,4.1174,4.1176,4.1178,0,0,0,0,0,0,4.052,4.0603,4.0617,4.0685,4.0734,4.0804,4.0833,4.085,4.09,4.0899,4.0941,4.0956,4.1013,4.1044,4.1024,4.1118,4.1113,4.1119,4.1096,4.1098,4.11,4.1091,4.1037,0,0,0,0,0,4.0522,4.0573,4.0642,4.0695,4.0719,4.0772,4.0803,4.0828,4.088,4.09,4.0943,4.099,4.1039,4.107,4.1119,4.1179,4.1193,4.1202,4.1204,4.1205,4.1209,4.1242,4.1246,4.1198,4.1198,4.1198,0,0,4.0525,4.0577,4.0606,4.069,4.0731,4.0781,4.0789,4.0841,4.0877,4.0907,4.0968,4.1,4.1056,4.1116,4.1144,4.1143,4.1225,4.1208,4.1208,4.1212,4.1245,4.1249,4.1253,4.12,4.12,4.1199,0,0,4.0556,4.0601,4.065,4.0692,4.0755,4.079,4.0801,4.0869,4.0892,4.0954,4.0977,4.1019,4.1103,4.1142,4.1172,4.1217,4.1231,4.1231,4.124,4.1271,4.1275,4.1279,4.1294,4.1299,4.1235,4.1235,4.1235,0,4.0551,4.063,4.0672,4.0724,4.0759,4.0791,4.0839,4.0876,4.0951,4.0973,4.0971,4.1077,4.1117,4.1186,4.1197,4.1221,4.1233,4.1224,4.1272,4.1276,4.1279,4.1294,4.13,4.1235,4.1235,4.1235,4.1235,0,4.062,4.0674,4.0705,4.078,4.0819,4.0868,4.0915,4.0949,4.097,4.1004,4.1065,4.1113,4.1172,4.119,4.121,4.1261,4.1259,4.1264,4.126,4.1283,4.1297,4.1303,4.1234,4.1234,4.1235,4.1235,0,0,4.0636,4.0734,4.0745,4.0778,4.085,4.0891,4.094,4.1,4.1028,4.1077,4.1118,4.1189,4.1194,4.1228,4.1253,4.128,4.1311,4.1282,4.1283,4.1285,4.1369,4.1365,4.1371,4.1321,4.1322,4.1323,4.1364,0,4.0676,4.077,4.0809,4.0883,4.0932,4.0962,4.1005,4.1052,4.1084,4.1128,4.1162,4.1212,4.1215,4.1236,4.1265,4.1301,4.1328,4.1299,4.1357,4.1359,4.1343,4.1378,4.1374,4.1411,4.137,4.1371,4.1372,0,4.0735,4.0788,4.0868,4.0934,4.0955,4.0994,4.1051,4.1094,4.1146,4.1168,4.1206,4.123,4.128,4.1272,4.1341,4.132,4.1345,4.1367,4.1369,4.1376,4.1367,4.1385,4.1423,4.1429,4.1381,4.138,4.138,0,4.0738,4.0829,4.0888,4.0916,4.0994,4.102,4.1053,4.1105,4.1139,4.1188,4.1209,4.1262,4.1291,4.133,4.1366,4.1358,4.143,4.1426,4.1448,4.1447,4.1462,4.146,4.1504,4.1479,4.1479,4.1478,4.1478,0,4.0778,4.0825,4.0891,4.0927,4.098,4.1023,4.1073,4.1108,4.1154,4.1196,4.1224,4.1261,4.1307,4.1349,4.1377,4.1429,4.1441,4.1458,4.1465,4.1456,4.1454,4.1473,4.1472,4.148,4.148,4.1479,4.1479,0,4.079,4.0836,4.0902,4.0971,4.099,4.1025,4.1083,4.1118,4.1152,4.1204,4.1218,4.127,4.1322,4.1362,4.1428,4.1447,4.1501,4.1508,4.1484,4.1488,4.1507,4.1504,4.1565,4.1574,4.1542,4.1543,4.1543,0,4.0812,4.085,4.0923,4.0955,4.0988,4.1038,4.1073,4.1116,4.115,4.1213,4.1239,4.1294,4.134,4.142,4.1462,4.1512,4.1521,4.1538,4.1528,4.1518,4.152,4.1518,4.1521,4.1539,4.1539,4.154,4.154,0,4.0846,4.0868,4.0918,4.0977,4.1018,4.1065,4.1113,4.1136,4.1187,4.1224,4.1279,4.1314,4.1383,4.1436,4.149,4.1521,4.1538,4.1543,4.155,4.1541,4.1526,4.1534,4.1487,4.1541,4.1541,4.1541,4.1541,4.1541,4.0864,4.0899,4.0956,4.1011,4.1052,4.1096,4.1132,4.1172,4.1219,4.1281,4.1302,4.1358,4.1408,4.1484,4.1515,4.1557,4.1558,4.1569,4.1572,4.1574,4.1573,4.1519,4.1567,4.1567,4.1567,4.1567,4.1567,0,4.09,4.0938,4.0989,4.1056,4.1099,4.1114,4.1167,4.1201,4.1251,4.1298,4.1343,4.1405,4.1456,4.1502,4.1555,4.1579,4.1588,4.1592,4.159,4.1597,4.1569,4.1557,4.1584,4.1584,4.1584,4.1584,4.1584,4.1584,4.0923,4.0983,4.101,4.1089,4.1127,4.1184,4.1213,4.1253,4.1291,4.136,4.1404,4.1434,4.148,4.1536,4.1583,4.1595,4.1612,4.1614,4.1627,4.1601,4.1599,4.1597,4.1586,4.1617,4.1617,4.1652,4.1652,4.1652]}]]